Погода в Подстепках

Россия / Оренбургская область     51°32′21″N   53°45′07″E
темп.,
°C
ветер,
м/с
пор.,
м/с
влажн.,
%
обл.,
%
осадки,
мм/ч
давл.,
гПа
погр.,
м
5 марта, пт
пт523:000зюз101690100 1.3 1008916
02:00−2юз91879100 0.0 1008679
05:00−3юз9188298 0.0 1008593
08:00−3юз8178496 0.0 1007546
11:00−1юз9178998 0.0 1007681
14:00+1юз101899100 1.4 1005899
17:00+1зюз91699100 3.5 1007679
20:00+1зюз6129898 0.3 1008594
6 марта, сб
сб623:000з6119799 0.7 1011516
02:00−2ссз3594100 0.1 1012166
05:00−7ссз2389100 0.1 101422
08:00−10ссв118796 0.0 101521
11:00−6св008596 0.0 101652
14:00−3з118299 0.0 1016250
17:00−3ссз0185100 0.0 1015258
20:00−5св1289100 0.0 101421
7 марта, вс
вс723:00−5всв2495100 0.1 101392
02:00−6св4795100 1.3 1010266
05:00−6св5995100 2.5 1009359
08:00−8ссв71294100 1.9 1007511
11:00−8с71290100 3.6 1009658
14:00−7ссз7117699 0.1 1011709
17:00−8сз588149 0.1 1014500
20:00−13з34900 0.0 101634
8 марта, пн
пн823:00−15зюз34920 0.0 101733
02:00−16ююз34957 0.0 101640
05:00−11ю6139451 0.0 1014361
08:00−6ююз91787100 0.0 1011710
11:00−4юз101691100 0.3 1010903
14:00−2юз91492100 0.6 1010949
17:00−1юз91490100 1.1 10101090
20:00−2ююз91591100 0.1 1008946
9 марта, вт
вт923:00−1юз101693100 0.6 1008918
02:00−1юз81496100 0.9 1008825
05:00−1юз71297100 2.3 1007740
08:00−3з5897100 1.9 1007408
11:00−5з71189100 4.1 1010875
14:00−8зюз578711 0.0 1016439
17:00−8юз368950 0.0 1016356
20:00−11ююз2392100 0.0 101631